Location: Goettingen
(51.5300°N, 9.9433°E)
Time: 18:34:08
(UTC+02:00)

ISS - Pass Details

Date: 08 May 2026
Orbit: 414 x 424 km, 51.6° (Epoch: 13 May)

Event Time Altitude Azimuth Distance (km) Brightness Sun altitude
Exits shadow 02:34:32 61° 125° (SE) 481 -3.6 -19.4°
Drops below altitude 10° 02:37:23 10° 107° (ESE) 1,497 -0.9 -19.2°
Sets 02:39:29 0° 106° (ESE) 2,362 0.1 -19.1°
